DW5750 Weather Reports


Display with metric or nautical units.
time (UTC)temp
F
wind
direction
speed
MPH
gust
MPH
rain 1hr
in
rain 24hr
in
rain mn
in
humidity
%
barometer
mb
20260503181518 83 158 4.0 7.0 0.00 0.16 0.16 89 1011.4
20260503180026 83 114 3.0 6.0 0.00 0.16 0.16 88 1011.6
20260503174521 83 186 3.0 9.0 0.00 0.16 0.16 90 1011.8
20260503173016 82 202 4.0 8.0 0.00 0.16 0.16 91 1012.2
20260503171518 82 184 4.0 9.0 0.00 0.16 0.16 91 1012.3
20260503150107 78 158 3.0 6.0 0.00 0.16 0.16 100 1013.1
20260503081538 76 328 1.0 3.0 0.00 0.01 0.00 98 1010.1
20260503071533 77 321 0.0 0.0 0.00 0.01 0.00 98 1010.4
20260503054517 79 210 0.0 5.0 0.00 0.01 0.01 97 1011.2
20260503053008 79 208 2.0 5.0 0.00 0.01 0.01 96 1011.4
20260503051507 79 217 0.0 4.0 0.00 0.01 0.01 96 1011.6
20260503050007 79 219 0.0 5.0 0.00 0.01 0.01 96 1011.6
20260503044506 79 210 3.0 5.0 0.00 0.01 0.01 96 1011.6
20260503043006 79 232 1.0 5.0 0.00 0.01 0.01 96 1011.6
20260503041505 79 212 5.0 7.0 0.00 0.01 0.01 96 1011.5
20260503040007 79 210 4.0 8.0 0.00 0.01 0.01 96 1011.5
20260503034504 79 211 2.0 6.0 0.00 0.01 0.01 96 1011.5
20260503033005 79 162 2.0 6.0 0.00 0.01 0.01 96 1011.3
20260503031503 79 205 0.0 5.0 0.00 0.01 0.01 95 1011.4
20260503030005 79 202 4.0 7.0 0.00 0.01 0.01 95 1011.2
20260503024501 79 207 5.0 9.0 0.00 0.01 0.01 94 1011.0
20260503023001 80 187 1.0 7.0 0.00 0.01 0.01 94 1010.7
20260503021559 80 194 5.0 9.0 0.00 0.01 0.01 93 1010.3
20260503020104 80 213 6.0 11.0 0.00 0.01 0.01 93 1010.2
20260503014627 80 206 5.0 11.0 0.00 0.01 0.01 93 1010.0
20260503013058 80 210 4.0 7.0 0.00 0.01 0.01 93 1009.8
20260503011625 80 181 3.0 8.0 0.00 0.01 0.01 93 1009.7
20260503010056 79 257 0.0 0.0 0.00 0.01 0.01 94 1009.4
20260503004556 79 252 0.0 2.0 0.00 0.01 0.01 93 1009.4
20260503003057 80 248 0.0 3.0 0.00 0.01 0.01 93 1009.3
20260503001554 80 248 1.0 4.0 0.00 0.01 0.01 92 1008.9
20260503000054 80 218 1.0 5.0 0.00 0.01 0.01 92 1008.7
20260502234612 81 209 3.0 8.0 0.00 0.01 0.01 91 1008.6
20260502233057 81 165 2.0 6.0 0.00 0.01 0.01 92 1008.4
20260502231551 81 221 2.0 5.0 0.00 0.01 0.01 93 1008.2
20260502230057 81 163 3.0 9.0 0.00 0.01 0.01 93 1008.1
20260502224549 81 231 4.0 11.0 0.00 0.01 0.01 93 1007.9
20260502223100 81 194 7.0 12.0 0.00 0.01 0.01 93 1007.9
20260502221547 82 229 5.0 9.0 0.00 0.01 0.01 90 1007.9
20260502220056 81 246 3.0 8.0 0.00 0.01 0.01 91 1007.8
20260502214548 81 210 6.0 12.0 0.00 0.01 0.01 92 1008.0
20260502213049 81 174 6.0 14.0 0.00 0.01 0.01 93 1007.9
20260502211544 81 172 8.0 13.0 0.00 0.01 0.01 93 1008.0
20260502210046 82 204 10.0 16.0 0.00 0.01 0.01 91 1008.1
20260502204540 82 207 10.0 16.0 0.00 0.01 0.01 91 1008.3
20260502203046 82 196 9.0 16.0 0.00 0.01 0.01 92 1008.5
20260502201539 82 170 9.0 17.0 0.00 0.01 0.01 90 1008.7
20260502200035 82 202 10.0 16.0 0.00 0.01 0.01 90 1008.9
20260502194532 83 213 8.0 12.0 0.00 0.01 0.01 90 1009.2
20260502193033 83 203 6.0 13.0 0.00 0.01 0.01 91 1009.5
20260502191535 83 193 8.0 13.0 0.00 0.01 0.01 91 1009.7
20260502190028 82 199 8.0 14.0 0.00 0.01 0.01 91 1010.0
20260502184535 82 171 7.0 14.0 0.00 0.01 0.01 91 1010.1
20260502183029 82 200 10.0 15.0 0.00 0.01 0.01 91 1010.5